Regional Weather Roundup
Issued by NWS Lake Charles, LA

Current Version | Previous Version | Text Only | Print | Product List | Glossary On
Versions: 1 2 3 4 5 6 7 8 9 10 11 12 13 14 15 16 17 18 19 20 21 22 23 24 25 26 27 28 29 30 31 32 33 34 35 36 37 38 39 40 41 42 43 44 45 46 47
000
ASUS44 KLCH 201210
RWRLCH
RWRLCH
REGIONAL WEATHER ROUNDUP
NATIONAL WEATHER SERVICE LAKE CHARLES LA
600 AM CST SAT DEC 20 2014

Note: "fair" indicates few or no clouds below 12,000 feet with no
significant weather and/or obstructions to visibility.


ACROSS SOUTHEAST TEXAS

CITY           SKY/WX    TMP DP  RH WIND       PRES   REMARKS
BEAUMONT       CLOUDY    50  48  93 N10       30.14R FOG
BEAUMONT CITY  CLOUDY    48  48  99 N8        30.15R FOG
ORANGE         CLOUDY    49  48  97 N7        30.16R FOG
JASPER         CLOUDY    47  46  95 N6        30.18R
$$

ACROSS CENTRAL LOUISIANA

CITY           SKY/WX    TMP DP  RH WIND       PRES   REMARKS
LEESVILLE      CLOUDY    46  46 100 N7        30.15R
FULLERTON      CLOUDY    49  45  86 NE6       30.13R
ALEXANDRIA INT CLOUDY    47  45  93 N6        30.16R
ESLER FIELD    CLOUDY    46  44  93 CALM      30.17R
DERIDDER       CLOUDY    48  46  95 N6        30.17R
OAKDALE        CLOUDY    47  46  93 N7        30.16R
OPELOUSAS      CLOUDY    47  46  95 N10       30.14R
$$

ACROSS SOUTHWEST AND SOUTH CENTRAL LOUISIANA

CITY           SKY/WX    TMP DP  RH WIND       PRES   REMARKS
SULPHUR        CLOUDY    50  49  95 N8        30.15R
LAKE CHARLES   CLOUDY    49  47  93 MISG      30.14R
CHENNAULT INT  CLOUDY    48  46  93 N7        30.15
CAMERON PHI    CLOUDY    50  48  93 NE13      30.15R
DEQUINCY       CLOUDY    47  47 100 N3        30.15R
JENNINGS       CLOUDY    48  46  94 N10G17    30.14R
LAFAYETTE      CLOUDY    49  47  93 NE9       30.13R
NEW IBERIA     CLOUDY    50  47  89 N12       30.12R FOG
ABBEVILLE      CLOUDY    47  47  98 N8        30.12R
PATTERSON      CLOUDY    48  46  93 N16       30.11R
SALT POINT       N/A     53  49  86 VRB6      30.09R
$$

SELECTED SITES ACROSS THE REGION

CITY           SKY/WX    TMP DP  RH WIND       PRES   REMARKS
HOUSTON BUSH   CLOUDY    51  48  89 NE9       30.16R
HOUSTON HOBBY  CLOUDY    51  50  96 N9        30.15R
GALVESTON      LGT RAIN  53  51  93 N15       30.14R
COLLEGE STAT   CLOUDY    49  47  93 N8        30.18S
CONROE         CLOUDY    49  46  90 N6        30.17R
HUNTSVILLE     CLOUDY    49  47  93 N5        30.18R
LUFKIN         CLOUDY    50  45  83 N6        30.17S
SHREVEPORT     CLOUDY    45  43  93 N9        30.20R
MONROE         CLEAR     40  39  97 N5        30.22R
NATCHEZ MS     CLOUDY    45  43  93 NE7       30.17R
BATON ROUGE    CLOUDY    48  45  89 E6        30.13R
N.O. INTL ARPT CLOUDY    50  47  89 NE16      30.10R FOG
SLIDELL        CLOUDY    48  46  93 NE10      30.11R
$$

MARINE REPORTS

STATION/POSITION TIME  TEMP    WIND        PRES    VSBY  WAVE
                       AIR SEA DIR/SP/G                  HT/PER
                 (UTC) (F)     (DEG/KT/KT) (MB)    (MI)  (FT/S)
BUOY 30 S HIGH I 1200   53 64   20/ 16/ 19 1019.3R         3/ 6
SEA RIM ST PARK  1200   50      20/ 11/ 13 1021.2R
PORT ARTHUR      1200      61   10/  7/  9 1020.7R
SABINE PASS N    1200   51 60   20/ 12/ 16 1020.4R
TEXAS POINT      NOT AVBL
CALCASIEU PASS   1200   50 60   30/ 14/ 16   N/A
LK CHARLES BEACH 1200   49 60              1020.8R
MARSH ISLAND     NOT AVBL
FRESH WATER LOCK 1200   49 60   10/ 11/ 16 1019.3R
AMERADA PASS     1200   50 51   20/  8/ 14 1018.8R
$$



USA.gov is the U.S. government's official web portal to all federal, state and local government web resources and services.